When you browse on this site, cookies collect data to enhance your experience and personalize the content and advertising you see.
Visit our Privacy Policy to learn more. By continuing to use the site, you agree to this use of cookies and data.
  • în România
  • Lista ţărilor
  • Pe 7 zile
  • Temperatura apei
  • Hartă satelitară
  • Meteo pe hartă
  • Widget-uri
  • user-avatar
    Intrare

    Meteo pe oră la Makedonovka

    Astăzi, 25 Martie, Luni

    Timp Temperatura Precipitaţii Vânt Presiune Umiditate
    00:00 -4°C° 0.2 mm 5 m/s 733 mmHg 95%
    01:00 -4°C° 0.2 mm 6 m/s 732 mmHg 95%
    02:00 -5°C° 0.2 mm 6 m/s 732 mmHg 94%
    03:00 -7°C° 0 mm 7 m/s 731 mmHg 93%
    04:00 -7°C° 0 mm 7 m/s 731 mmHg 93%
    05:00 -8°C° 0 mm 7 m/s 730 mmHg 93%
    06:00 -8°C° 0 mm 7 m/s 730 mmHg 93%
    07:00 -7°C° 0 mm 7 m/s 730 mmHg 93%
    08:00 -6°C° 0 mm 7 m/s 731 mmHg 92%
    09:00 -4°C° 0 mm 7 m/s 731 mmHg 91%
    10:00 -3°C° 0.1 mm 7 m/s 731 mmHg 93%
    11:00 -3°C° 0.1 mm 7 m/s 731 mmHg 95%
    12:00 -3°C° 0.1 mm 7 m/s 732 mmHg 97%
    13:00 -3°C° 0 mm 7 m/s 732 mmHg 97%
    14:00 -2°C° 0 mm 7 m/s 733 mmHg 96%
    15:00 -2°C° 0 mm 6 m/s 733 mmHg 94%
    16:00 -3°C° 0 mm 6 m/s 734 mmHg 93%
    17:00 -3°C° 0 mm 6 m/s 734 mmHg 92%
    18:00 -3°C° 0 mm 6 m/s 735 mmHg 90%
    19:00 -4°C° 0 mm 6 m/s 735 mmHg 91%
    20:00 -5°C° 0 mm 5 m/s 736 mmHg 92%
    21:00 -5°C° 0 mm 5 m/s 736 mmHg 93%
    22:00 -5°C° 0 mm 4 m/s 737 mmHg 93%
    23:00 -7°C° 0 mm 4 m/s 737 mmHg 93%

    Mâine, 26 Martie, Marţi

    Timp Temperatura Precipitaţii Vânt Presiune Umiditate
    00:00 -7°C° 0 mm 3 m/s 738 mmHg 92%
    01:00 -7°C° 0 mm 3 m/s 738 mmHg 91%
    02:00 -8°C° 0 mm 3 m/s 738 mmHg 90%
    03:00 -8°C° 0 mm 3 m/s 739 mmHg 89%
    04:00 -7°C° 0 mm 2 m/s 739 mmHg 87%
    05:00 -6°C° 0 mm 2 m/s 739 mmHg 86%
    06:00 -6°C° 0 mm 2 m/s 739 mmHg 85%
    07:00 -5°C° 0 mm 3 m/s 739 mmHg 85%
    08:00 -4°C° 0 mm 3 m/s 739 mmHg 85%
    09:00 -2°C° 0 mm 4 m/s 739 mmHg 85%
    10:00 -2°C° 0.1 mm 5 m/s 739 mmHg 90%
    11:00 -1°C° 0.1 mm 5 m/s 738 mmHg 95%
    12:00 -2°C° 0.1 mm 6 m/s 738 mmHg 99%
    13:00 -2°C° 0.8 mm 6 m/s 737 mmHg 99%
    14:00 -2°C° 0.8 mm 6 m/s 737 mmHg 99%
    15:00 -1°C° 0.8 mm 6 m/s 736 mmHg 99%
    16:00 -1°C° 0.3 mm 6 m/s 736 mmHg 99%
    17:00 -1°C° 0.3 mm 7 m/s 736 mmHg 99%
    18:00 -1°C° 0.3 mm 7 m/s 736 mmHg 99%
    19:00 -1°C° 0 mm 6 m/s 737 mmHg 97%
    20:00 -1°C° 0 mm 5 m/s 737 mmHg 96%
    21:00 -1°C° 0 mm 4 m/s 737 mmHg 95%
    22:00 0°C° 0 mm 3 m/s 738 mmHg 94%
    23:00 0°C° 0 mm 3 m/s 738 mmHg 94%

    Poimâine, 27 Martie, Miercuri

    Timp Temperatura Precipitaţii Vânt Presiune Umiditate
    00:00 0°C° 0 mm 3 m/s 738 mmHg 94%
    01:00 +1°C° 0.2 mm 2 m/s 738 mmHg 95%
    02:00 +1°C° 0.2 mm 2 m/s 738 mmHg 97%
    03:00 +1°C° 0.2 mm 2 m/s 738 mmHg 98%
    04:00 +1°C° 0.8 mm 2 m/s 737 mmHg 99%
    05:00 0°C° 0.8 mm 3 m/s 737 mmHg 99%
    06:00 0°C° 0.8 mm 3 m/s 737 mmHg 99%
    07:00 0°C° 1 mm 3 m/s 737 mmHg 99%
    08:00 -1°C° 1 mm 4 m/s 737 mmHg 99%
    09:00 -1°C° 1 mm 4 m/s 737 mmHg 99%
    10:00 -1°C° 1 mm 4 m/s 737 mmHg 99%
    11:00 -1°C° 1 mm 4 m/s 737 mmHg 99%
    12:00 -1°C° 1 mm 4 m/s 737 mmHg 99%
    13:00 -1°C° 1.1 mm 4 m/s 737 mmHg 99%
    14:00 0°C° 1.1 mm 3 m/s 737 mmHg 99%
    15:00 0°C° 1.1 mm 3 m/s 737 mmHg 99%
    16:00 0°C° 0.5 mm 3 m/s 737 mmHg 99%
    17:00 0°C° 0.5 mm 3 m/s 737 mmHg 99%
    18:00 +1°C° 0.5 mm 2 m/s 737 mmHg 99%
    19:00 -1°C° 0.3 mm 3 m/s 738 mmHg 98%
    20:00 -1°C° 0.3 mm 3 m/s 738 mmHg 97%
    21:00 -1°C° 0.3 mm 3 m/s 739 mmHg 96%
    22:00 -2°C° 0.1 mm 4 m/s 739 mmHg 95%
    23:00 -3°C° 0.1 mm 4 m/s 739 mmHg 93%

    28 Martie, Joi

    Timp Temperatura Precipitaţii Vânt Presiune Umiditate
    00:00 -3°C° 0.1 mm 4 m/s 738 mmHg 92%
    01:00 -4°C° 0 mm 4 m/s 739 mmHg 92%
    02:00 -7°C° 0 mm 4 m/s 739 mmHg 91%
    03:00 -8°C° 0 mm 4 m/s 739 mmHg 91%
    04:00 -8°C° 0 mm 3 m/s 739 mmHg 91%
    05:00 -8°C° 0 mm 3 m/s 739 mmHg 91%
    06:00 -8°C° 0 mm 3 m/s 739 mmHg 91%
    07:00 -8°C° 0 mm 4 m/s 740 mmHg 90%
    08:00 -7°C° 0 mm 4 m/s 740 mmHg 88%
    09:00 -5°C° 0 mm 4 m/s 740 mmHg 87%
    10:00 -4°C° 0 mm 4 m/s 740 mmHg 87%
    11:00 -4°C° 0 mm 5 m/s 741 mmHg 88%
    12:00 -4°C° 0 mm 5 m/s 741 mmHg 88%
    13:00 -4°C° 0 mm 5 m/s 741 mmHg 88%
    14:00 -4°C° 0 mm 5 m/s 741 mmHg 88%
    15:00 -2°C° 0 mm 5 m/s 741 mmHg 88%
    16:00 -3°C° 0 mm 4 m/s 741 mmHg 89%
    17:00 -4°C° 0 mm 4 m/s 741 mmHg 89%
    18:00 -5°C° 0 mm 3 m/s 741 mmHg 89%
    19:00 -5°C° 0 mm 3 m/s 742 mmHg 90%
    20:00 -6°C° 0 mm 3 m/s 742 mmHg 90%
    21:00 -6°C° 0 mm 3 m/s 742 mmHg 91%
    22:00 -6°C° 0 mm 3 m/s 742 mmHg 91%
    23:00 -7°C° 0 mm 4 m/s 742 mmHg 91%

    29 Martie, Vineri

    Timp Temperatura Precipitaţii Vânt Presiune Umiditate
    00:00 -8°C° 0 mm 4 m/s 742 mmHg 91%
    01:00 -7°C° 0 mm 4 m/s 741 mmHg 92%
    02:00 -7°C° 0 mm 4 m/s 741 mmHg 94%
    03:00 -7°C° 0 mm 4 m/s 741 mmHg 95%
    04:00 -7°C° 0 mm 4 m/s 741 mmHg 95%
    05:00 -7°C° 0 mm 4 m/s 741 mmHg 94%
    06:00 -7°C° 0 mm 4 m/s 741 mmHg 94%
    07:00 -7°C° 0 mm 5 m/s 741 mmHg 93%
    08:00 -6°C° 0 mm 5 m/s 741 mmHg 93%
    09:00 -6°C° 0 mm 5 m/s 740 mmHg 92%
    10:00 -5°C° 0 mm 6 m/s 740 mmHg 90%
    11:00 -5°C° 0 mm 6 m/s 739 mmHg 89%
    12:00 -4°C° 0 mm 6 m/s 739 mmHg 87%
    13:00 -4°C° 0 mm 6 m/s 738 mmHg 86%
    14:00 -3°C° 0 mm 6 m/s 738 mmHg 84%
    15:00 -3°C° 0 mm 6 m/s 737 mmHg 83%
    16:00 -3°C° 0.1 mm 6 m/s 736 mmHg 83%
    17:00 -3°C° 0.1 mm 6 m/s 735 mmHg 84%
    18:00 -3°C° 0.1 mm 6 m/s 734 mmHg 84%
    19:00 -3°C° 0.3 mm 6 m/s 734 mmHg 86%
    20:00 -3°C° 0.3 mm 7 m/s 733 mmHg 89%
    21:00 -3°C° 0.3 mm 7 m/s 732 mmHg 91%
    22:00 -3°C° 0.3 mm 6 m/s 732 mmHg 92%
    23:00 -2°C° 0.3 mm 4 m/s 731 mmHg 94%

    30 Martie, Sâmbătă

    Timp Temperatura Precipitaţii Vânt Presiune Umiditate
    00:00 -1°C° 0.3 mm 3 m/s 731 mmHg 95%
    01:00 -1°C° 0 mm 3 m/s 731 mmHg 95%
    02:00 -2°C° 0 mm 3 m/s 731 mmHg 95%
    03:00 -2°C° 0 mm 3 m/s 732 mmHg 95%
    04:00 -2°C° 0 mm 3 m/s 732 mmHg 95%
    05:00 -2°C° 0 mm 3 m/s 733 mmHg 95%
    06:00 -3°C° 0 mm 4 m/s 733 mmHg 95%
    07:00 -2°C° 0 mm 4 m/s 734 mmHg 96%
    08:00 -2°C° 0 mm 4 m/s 734 mmHg 98%
    09:00 -2°C° 0 mm 4 m/s 735 mmHg 99%
    10:00 -2°C° 0 mm 4 m/s 736 mmHg 99%
    11:00 -1°C° 0 mm 3 m/s 736 mmHg 99%
    12:00 0°C° 0 mm 3 m/s 737 mmHg 99%
    13:00 0°C° 0 mm 3 m/s 737 mmHg 99%
    14:00 0°C° 0 mm 3 m/s 737 mmHg 99%
    15:00 0°C° 0 mm 3 m/s 738 mmHg 99%
    16:00 0°C° 0 mm 3 m/s 738 mmHg 98%
    17:00 -1°C° 0 mm 3 m/s 739 mmHg 98%
    18:00 -1°C° 0 mm 3 m/s 739 mmHg 97%
    19:00 -1°C° 0 mm 3 m/s 740 mmHg 96%
    20:00 -2°C° 0 mm 3 m/s 740 mmHg 96%
    21:00 -2°C° 0 mm 2 m/s 740 mmHg 95%
    22:00 -3°C° 0 mm 2 m/s 740 mmHg 94%
    23:00 -4°C° 0 mm 2 m/s 740 mmHg 94%
    Arată mai mult